Вернуться в каталог

COSMOS 831

АктивенНавигацияLEO
NORAD 8895·PAYLOAD·🇷🇺 Russia

Запущен Jun 15, 1976 с Plesetsk Cosmodrome

Loading…

Ближайшие Пролёты (ближайшие 24 часа)

TLE

СвежийSource: Space-Track

Эпоха: Sep 14, 2026, 06:38 UTC

1 08895U 76054G   26257.27680654 -.00000018  00000-0 -19037-4 0  9997
2 08895  73.9973  89.6670 0020753 359.4906 111.1163 12.43748967281375

Отслеживайте COSMOS 831 в реальном времени с AllMySat

Download on the App Store